www.pogodaiklimat.ru
ПОГОДА в Аллентауне
Время
и дата
23:35 04.10
23:55 04.10
00:15 05.10
00:35 05.10
00:55 05.10
01:15 05.10
01:35 05.10
01:55 05.10
02:15 05.10
02:35 05.10
02:55 05.10
03:15 05.10
03:35 05.10
03:55 05.10
04:15 05.10
04:35 05.10
04:55 05.10
05:15 05.10
05:35 05.10
05:55 05.10
06:15 05.10
06:35 05.10
06:55 05.10
07:15 05.10
07:35 05.10
07:55 05.10
08:15 05.10
08:35 05.10
08:55 05.10
09:15 05.10
09:35 05.10
09:55 05.10
10:15 05.10
10:35 05.10
10:55 05.10
11:15 05.10
11:35 05.10
11:55 05.10
12:15 05.10
12:35 05.10
12:55 05.10
13:15 05.10
13:35 05.10
13:55 05.10
14:15 05.10
14:35 05.10
14:55 05.10
15:15 05.10
Ветер
(напр.,м/с)
Видим. Явления Облачность Т
(С)
Тd
(С)
f
(%)
Тe
(С)
Тes
(С)
Комфортность P
(гПа)
Po
(гПа)
Тmin
(С)
Tmax
(С)
R
(мм)
R24
(мм)
S
(см)
СВ 4 11 км 10/10 210 м +11.0 +10.0 94 +8 +8 999.2
С 4 16 км 10/10 270 м +11.0 +10.0 94 +8 +8 998.8
С 4 16 км 10/10 390 м +11.0 +10.0 94 +8 +8 998.8
С 4 16 км 10/10 450 м +11.0 +10.0 94 +8 +8 998.8
С 3 16 км дождь 10/10 450 m
[Ns]
+11.0 +10.0 94 +9 +9 998.8
С 3 11 км слабый дождь 10/10 390 m
[Ns]
+11.0 +11.0 100 +9 +9 998.5
С 4 11 км гроза со слабым дождем 10/10 390 m
[Cb]
+11.0 +11.0 100 +8 +8 998.5
С 3 16 км 10/10 390 м +11.0 +11.0 100 +9 +9 998.8
С 4 16 км гроза со слабой моросью 10/10 390 m
[Cb]
+11.0 +11.0 100 +8 +8 998.2
С 3 16 км 10/10 330 м +11.0 +11.0 100 +9 +9 998.2
СВ 3 16 км дождь 10/10 390 m
[Ns]
+12.0 +11.0 94 +10 +10 997.8
СВ 2 16 км дождь 10/10 330 m
[Ns]
+12.0 +11.0 94 +11 +11 998.2
СВ 4 16 км слабый дождь 10/10 210 m
[Ns]
+12.0 +11.0 94 +10 +10 998.2
СВ 5 11 км дождь 10/10 210 m
[Ns]
+12.0 +11.0 94 +9 +9 998.2
СВ 5 16 км слабый дождь 10/10 210 m
[Ns]
+12.0 +11.0 94 +9 +9 998.5
СВ 5 16 км дождь 10/10 210 m
[Ns]
+12.0 +11.0 94 +9 +9 998.5
СВ 4 16 км слабый дождь 10/10 210 m
[Ns]
+12.0 +11.0 94 +10 +10 998.5
СВ 4 16 км слабый дождь 10/10 210 m
[Ns]
+12.0 +12.0 100 +10 +10 998.5
СВ 4 16 км 10/10 210 м +12.0 +12.0 100 +10 +10 998.8
СВ 3 16 км 10/10 210 м +12.0 +12.0 100 +10 +10 998.8
СВ 4 6 км дымка 10/10 210 м +12.0 +12.0 100 +10 +10 998.5
СВ 4 11 км 10/10 210 м +12.0 +12.0 100 +10 +10 998.5
СВ 3 8 км дождь 10/10 210 m
[Ns]
+13.0 +12.0 94 +12 +12 998.8
С 4 11 км 10/10 210 м +13.0 +12.0 94 +11 +11 999.2
С 3 16 км 10/10 210 м +13.0 +12.0 94 +12 +12 999.5
С 4 16 км 10/10 210 м +13.0 +12.0 94 +11 +11 999.8
С 4 16 км 10/10 270 м +13.0 +12.0 94 +11 +11 999.8
С 3 5 км дождь 10/10 270 m
[Ns]
+13.0 +12.0 94 +12 +12 1000.2
С 3 16 км 10/10 150 м +12.0 +12.0 100 +10 +10 1000.2
С 2 16 км слабый дождь 10/10 210 m
[Ns]
+13.0 +12.0 94 +12 +12 1000.2
С 3 16 км 10/10 330 м +13.0 +12.0 94 +12 +12 1000.2
С 2 16 км 10/10 390 м +13.0 +13.0 100 +12 +12 1000.2
СВ 3 6 км дымка 10/10 330 м +13.0 +13.0 100 +11 +11 1000.2
С 2 8 км дымка 10/10 330 м +13.0 +13.0 100 +12 +12 1000.2
СВ 2 6 км слабый дождь 10/10 390 m
[Ns]
+14.0 +13.0 94 +13 +13 1000.2
С 2 5 км слабый дождь 10/10 390 m
[Ns]
+14.0 +13.0 94 +13 +13 1000.2
С 2 16 км слабый дождь 10/10 330 m
[Ns]
+14.0 +13.0 94 +13 +13 1000.2
С 2 16 км слабый дождь 10/10 270 m
[Ns]
+15.0 +14.0 94 +15 +15 1000.2
С 3 16 км слабый дождь 10/10 360 m
[Ns]
+15.0 +14.0 94 +14 +14 999.8
С 3 16 км слабый дождь 10/10 300 m
[Ns]
+15.0 +15.0 100 +14 +14 999.5
С 2 4 км дождь 10/10 240 m
[Ns]
+15.0 +15.0 100 +15 +15 999.5
С 2 16 км слабый дождь 10/10 180 m
[Ns]
+16.0 +15.0 94 +16 +16 999.2
С 2 16 км слабый дождь 10/10 180 m
[Ns]
+16.0 +15.0 94 +16 +16 999.2
С 2 8 км дымка 10/10 270 м +15.0 +15.0 100 +15 +15 999.2
штиль 0 8 км дымка 10/10 270 м +16.0 +15.0 94 +16 +16 999.5
СЗ 3 11 км 10/10 210 м +16.0 +15.0 94 +15 +15 999.5
СЗ 2 16 км 10/10 270 м +16.0 +15.0 94 +16 +16 999.5
С 2 16 км 10/10 540 м +16.0 +15.0 94 +16 +16 999.5
Местоположение метеостанции Allentown Queen City Municipal Airport: широта 40.5700 долгота -75.4880 высота над уровнем моря 122 м.
В архиве по умолчанию представлена погода в Аллентауне за последние 1-2 суток. Обновление информации о фактической погоде в базе происходит ежечасно! Архивные данные за месяц целиком и за предыдущие месяцы Вы можете получить, выбрав интересующий диапазон дат из раскрывающегося списка и нажав кнопку "Ввод!".
Внимание! Архив погоды МЕТАР в базе сайта по станциям, не включенным в климатический монитор, хранится не более 60 дней. Нет смысла пытаться выбрать более раннюю дату.
*Определитесь, кто Вы:
Внимание! Время в таблицах - местное (без учета летнего времени). Для получения всемирного времени необходимо вычесть поправку, которая равна -5 ч.
Смотрите также архив погоды в соседних городах и на ближайших метеорологических станциях:
Партнеры нашего сайта:      
Пояснения к столбцам:
  • Ветер - указаны скорость ветра в м/с - средняя за 10 мин, порывы в срок и между сроками (в фигурных скобках) и направление, откуда дует ветер: С - северный,
  • СВ - северо-восточный, В - восточный, ЮВ - юго-восточный, Ю - южный, ЮЗ - юго-западный, З - западный, СЗ - северо-западный.
  • Видимость - горизонтальная дальность видимости в метрах или километрах. При видимости от 1 до 10 км при отсутствии осадков обычно наблюдается дымка, при ухудшении видимости до 1 км и менее - туман. В сухую погоду видимость может ухудшаться дымом, пылью или мглою.
  • Явления - указаны атмосферные явления, наблюдавшиеся в срок или в последний час перед сроком; фигурными скобками обозначены явления, наблюдавшиеся между сроками (за 1-3 часа до срока); квадратными скобками обозначены град или гололедные отложения с указанием их диаметра в мм.
  • Облачность - указаны через наклонную черту общая и нижняя облачность в баллах и высота нижней границы облаков в метрах; квадратными скобками обозначены формы облаков: Ci - перистые, Cs - перисто-слоистые, Cc - перисто-кучевые, Ac - высококучевые, As - высокослоистые, Sc - слоисто-кучевые, Ns - слоисто-дождевые, Cu - кучевые, Cb - кучево-дождевые. Подробнее классификацию облаков см. в Атласе облаков (PDF).
  • T - Температура воздуха - температура, измеренная на высоте 2 м над землей.
  • Td - Температура точки росы - температура, при понижении до которой содержащийся в воздухе водяной пар достигнет насыщения.
  • f - Относительная влажность воздуха - влажноcть воздуха, измеренная на высоте 2 м над землей.
  • Te - Эффективная температура - температура, которую ощущает одетый по сезону человек в тени. Характеристика душности погоды. При расчете учитывается влияние влажности воздуха и скорости ветра на теплоощущения человека.
  • Tes - Эффективная температура на солнце - температура, которую ощущает человек, с поправкой на солнечный нагрев. Характеристика знойности погоды. Зависит от высоты солнца над горизонтом, облачности и скорости ветра. Ночью, в пасмурную погоду, а также при ветре 12 м/с и более поправка равна нулю.
  • P - Атмосферное давление - приведенное к уровню моря атмосферное давление.
  • Po - Атмосферное давление - измеренное на уровне метеостанции атмосферное давление.
  • Tmin - Минимальная температура - минимум температуры воздуха на высоте 2 м над землей.
  • Tmax - Максимальная температура - максимум температуры воздуха на высоте 2 м над землей.
  • R - Количество осадков - Количество выпавших осадков за период времени, мм. При наведении курсора мыши на число - период времени, за который выпало указанное количество осадков.
  • R24 - Количество осадков - Количество выпавших осадков за 24 часа, мм.
  • S - Снежный покров - Высота снежного покрова, см. При наведении курсора мыши на число - состояние снежного покрова и степень покрытия местности в баллах.